When you browse on this site, cookies collect data to enhance your experience and personalize the content and advertising you see.
Visit our Privacy Policy to learn more. By continuing to use the site, you agree to this use of cookies and data.
  • In Hungary
  • List of Countries
  • For 7 days
  • Water Temperature
  • Weather Map
  • News
  • Weather Widgets
  • user-avatar
    Login

    Hourly Weather Tavriis'ke

    Today, 18 November, Monday

    Time Temperature Precipitation Wind Pressure Humidity
    00:00 +4°C° 0 mm 3 mps 766 mmHg 90%
    01:00 +4°C° 0 mm 3 mps 766 mmHg 91%
    02:00 +4°C° 0 mm 3 mps 766 mmHg 92%
    03:00 +4°C° 0 mm 3 mps 765 mmHg 92%
    04:00 +4°C° 0 mm 3 mps 765 mmHg 92%
    05:00 +3°C° 0 mm 3 mps 765 mmHg 92%
    06:00 +4°C° 0 mm 3 mps 765 mmHg 92%
    07:00 +4°C° 0 mm 3 mps 765 mmHg 91%
    08:00 +5°C° 0 mm 3 mps 766 mmHg 90%
    09:00 +8°C° 0 mm 2 mps 766 mmHg 84%
    10:00 +9°C° 0 mm 2 mps 766 mmHg 79%
    11:00 +12°C° 0 mm 2 mps 766 mmHg 73%
    12:00 +12°C° 0 mm 2 mps 766 mmHg 70%
    13:00 +13°C° 0 mm 2 mps 765 mmHg 66%
    14:00 +13°C° 0 mm 2 mps 766 mmHg 69%
    15:00 +12°C° 0 mm 2 mps 766 mmHg 73%
    16:00 +10°C° 0 mm 2 mps 766 mmHg 77%
    17:00 +9°C° 0 mm 2 mps 766 mmHg 81%
    18:00 +9°C° 0 mm 2 mps 766 mmHg 83%
    19:00 +8°C° 0 mm 2 mps 766 mmHg 85%
    20:00 +8°C° 0 mm 2 mps 766 mmHg 88%
    21:00 +7°C° 0 mm 2 mps 766 mmHg 89%
    22:00 +7°C° 0 mm 2 mps 767 mmHg 90%
    23:00 +6°C° 0 mm 2 mps 767 mmHg 91%

    Tomorrow, 19 November, Tuesday

    Time Temperature Precipitation Wind Pressure Humidity
    00:00 +6°C° 0 mm 2 mps 767 mmHg 92%
    01:00 +6°C° 0 mm 2 mps 767 mmHg 92%
    02:00 +7°C° 0 mm 1 mps 767 mmHg 92%
    03:00 +5°C° 0 mm 2 mps 767 mmHg 92%
    04:00 +5°C° 0 mm 2 mps 767 mmHg 92%
    05:00 +5°C° 0 mm 2 mps 767 mmHg 92%
    06:00 +5°C° 0 mm 2 mps 767 mmHg 91%
    07:00 +5°C° 0 mm 2 mps 767 mmHg 90%
    08:00 +6°C° 0 mm 2 mps 768 mmHg 89%
    09:00 +7°C° 0 mm 2 mps 768 mmHg 81%
    10:00 +9°C° 0 mm 2 mps 768 mmHg 74%
    11:00 +10°C° 0 mm 2 mps 768 mmHg 66%
    12:00 +12°C° 0 mm 2 mps 768 mmHg 63%
    13:00 +12°C° 0 mm 2 mps 767 mmHg 60%
    14:00 +13°C° 0 mm 2 mps 767 mmHg 57%
    15:00 +12°C° 0 mm 2 mps 767 mmHg 60%
    16:00 +10°C° 0 mm 2 mps 767 mmHg 63%
    17:00 +9°C° 0 mm 2 mps 767 mmHg 66%
    18:00 +9°C° 0 mm 2 mps 767 mmHg 67%
    19:00 +8°C° 0 mm 2 mps 767 mmHg 69%
    20:00 +8°C° 0 mm 3 mps 767 mmHg 70%
    21:00 +7°C° 0 mm 3 mps 767 mmHg 71%
    22:00 +7°C° 0 mm 2 mps 767 mmHg 71%
    23:00 +7°C° 0 mm 2 mps 767 mmHg 72%

    Day after tomorrow, 20 November, Wednesday

    Time Temperature Precipitation Wind Pressure Humidity
    00:00 +6°C° 0 mm 2 mps 767 mmHg 72%
    01:00 +6°C° 0 mm 2 mps 767 mmHg 73%
    02:00 +6°C° 0 mm 2 mps 767 mmHg 74%
    03:00 +5°C° 0 mm 3 mps 767 mmHg 76%
    04:00 +4°C° 0 mm 3 mps 767 mmHg 77%
    05:00 +4°C° 0 mm 3 mps 767 mmHg 79%
    06:00 +4°C° 0 mm 3 mps 767 mmHg 80%
    07:00 +4°C° 0 mm 3 mps 767 mmHg 80%
    08:00 +4°C° 0 mm 3 mps 767 mmHg 81%
    09:00 +6°C° 0 mm 4 mps 767 mmHg 74%
    10:00 +7°C° 0 mm 4 mps 767 mmHg 67%
    11:00 +10°C° 0 mm 4 mps 767 mmHg 60%
    12:00 +10°C° 0 mm 4 mps 766 mmHg 57%
    13:00 +11°C° 0 mm 4 mps 766 mmHg 54%
    14:00 +11°C° 0 mm 4 mps 766 mmHg 52%
    15:00 +10°C° 0 mm 4 mps 766 mmHg 57%
    16:00 +8°C° 0 mm 4 mps 766 mmHg 61%
    17:00 +7°C° 0 mm 5 mps 766 mmHg 66%
    18:00 +7°C° 0 mm 5 mps 766 mmHg 70%
    19:00 +6°C° 0 mm 5 mps 766 mmHg 74%
    20:00 +5°C° 0 mm 6 mps 767 mmHg 77%
    21:00 +5°C° 0 mm 6 mps 767 mmHg 77%
    22:00 +4°C° 0 mm 6 mps 767 mmHg 77%
    23:00 +4°C° 0 mm 6 mps 767 mmHg 77%

    21 November, Thursday

    Time Temperature Precipitation Wind Pressure Humidity
    00:00 +4°C° 0 mm 7 mps 767 mmHg 73%
    01:00 +4°C° 0 mm 7 mps 767 mmHg 69%
    02:00 +4°C° 0 mm 7 mps 767 mmHg 65%
    03:00 +4°C° 0 mm 7 mps 767 mmHg 69%
    04:00 +4°C° 0 mm 8 mps 767 mmHg 73%
    05:00 +4°C° 0 mm 8 mps 767 mmHg 77%
    06:00 +3°C° 0 mm 9 mps 768 mmHg 74%
    07:00 +3°C° 0 mm 9 mps 768 mmHg 71%
    08:00 +3°C° 0 mm 10 mps 768 mmHg 68%
    09:00 +3°C° 0 mm 10 mps 768 mmHg 67%
    10:00 +3°C° 0 mm 10 mps 769 mmHg 65%
    11:00 +2°C° 0 mm 10 mps 769 mmHg 64%
    12:00 +2°C° 0 mm 10 mps 769 mmHg 63%
    13:00 +2°C° 0 mm 10 mps 769 mmHg 62%
    14:00 +2°C° 0 mm 10 mps 769 mmHg 61%
    15:00 +1°C° 0 mm 10 mps 769 mmHg 62%
    16:00 0°C° 0 mm 10 mps 769 mmHg 62%
    17:00 0°C° 0 mm 10 mps 769 mmHg 63%
    18:00 -2°C° 0 mm 10 mps 769 mmHg 62%
    19:00 -2°C° 0 mm 10 mps 770 mmHg 61%
    20:00 -3°C° 0 mm 10 mps 770 mmHg 61%
    21:00 -3°C° 0 mm 9 mps 770 mmHg 62%
    22:00 -3°C° 0 mm 9 mps 770 mmHg 64%
    23:00 -4°C° 0 mm 9 mps 770 mmHg 66%

    22 November, Friday

    Time Temperature Precipitation Wind Pressure Humidity
    00:00 -4°C° 0 mm 9 mps 770 mmHg 67%
    01:00 -4°C° 0 mm 9 mps 770 mmHg 68%
    02:00 -4°C° 0 mm 9 mps 770 mmHg 69%
    03:00 -5°C° 0 mm 9 mps 770 mmHg 69%
    04:00 -5°C° 0 mm 9 mps 770 mmHg 69%
    05:00 -5°C° 0 mm 9 mps 770 mmHg 69%
    06:00 -5°C° 0 mm 9 mps 770 mmHg 68%
    07:00 -4°C° 0 mm 9 mps 770 mmHg 68%
    08:00 -4°C° 0 mm 9 mps 770 mmHg 68%
    09:00 -4°C° 0 mm 9 mps 769 mmHg 68%
    10:00 -3°C° 0 mm 9 mps 769 mmHg 68%
    11:00 -1°C° 0 mm 9 mps 769 mmHg 68%
    12:00 -1°C° 0 mm 9 mps 769 mmHg 69%
    13:00 0°C° 0 mm 9 mps 768 mmHg 69%
    14:00 0°C° 0 mm 8 mps 768 mmHg 69%
    15:00 0°C° 0 mm 8 mps 768 mmHg 70%
    16:00 0°C° 0 mm 8 mps 768 mmHg 71%
    17:00 0°C° 0 mm 8 mps 767 mmHg 72%
    18:00 0°C° 0 mm 8 mps 767 mmHg 71%
    19:00 0°C° 0 mm 8 mps 767 mmHg 71%
    20:00 +1°C° 0 mm 8 mps 767 mmHg 70%
    21:00 +1°C° 0 mm 8 mps 767 mmHg 71%
    22:00 +1°C° 0 mm 8 mps 767 mmHg 71%
    23:00 +2°C° 0 mm 8 mps 767 mmHg 72%

    23 November, Saturday

    Time Temperature Precipitation Wind Pressure Humidity
    00:00 +1°C° 0 mm 8 mps 767 mmHg 73%
    01:00 +1°C° 0 mm 8 mps 767 mmHg 74%
    02:00 +1°C° 0 mm 8 mps 767 mmHg 75%
    03:00 +1°C° 0 mm 8 mps 767 mmHg 75%
    04:00 +1°C° 0 mm 8 mps 767 mmHg 75%
    05:00 +2°C° 0 mm 7 mps 767 mmHg 75%
    06:00 +2°C° 0 mm 7 mps 767 mmHg 75%
    07:00 +2°C° 0 mm 7 mps 767 mmHg 75%
    08:00 0°C° 0 mm 7 mps 767 mmHg 75%
    09:00 +2°C° 0 mm 7 mps 767 mmHg 73%
    10:00 +2°C° 0 mm 7 mps 767 mmHg 71%
    11:00 +3°C° 0 mm 6 mps 767 mmHg 69%
    12:00 +3°C° 0 mm 6 mps 767 mmHg 68%
    13:00 +3°C° 0 mm 6 mps 766 mmHg 67%
    14:00 +3°C° 0 mm 6 mps 766 mmHg 66%
    15:00 +3°C° 0 mm 6 mps 766 mmHg 67%
    16:00 +3°C° 0 mm 6 mps 766 mmHg 68%
    17:00 +2°C° 0 mm 6 mps 766 mmHg 70%
    18:00 +2°C° 0 mm 6 mps 766 mmHg 70%
    19:00 +2°C° 0 mm 5 mps 766 mmHg 70%
    20:00 +2°C° 0 mm 5 mps 766 mmHg 70%
    21:00 +1°C° 0 mm 5 mps 766 mmHg 70%
    22:00 +1°C° 0 mm 5 mps 765 mmHg 70%
    23:00 0°C° 0 mm 4 mps 765 mmHg 70%
    Show more